Weather History for Staples, MN

Change the Weather History Date:

Monday, December 3, 2012

  Actual Average Record
Temperature  
Mean Temperature 38 °F -  
Max Temperature 48 °F 29 °F 51 °F (1998)
Min Temperature 28 °F 15 °F -9 °F (2010)
Degree Days  
Heating Degree Days 27    
Moisture  
Dew Point 36 °F    
Average Humidity 81    
Maximum Humidity 100    
Minimum Humidity 65    
Precipitation  
Precipitation 0.00 in - - ()
Sea Level Pressure  
Sea Level Pressure 29.62 in    
Wind  
Wind Speed 15 mph (SW)    
Max Wind Speed 22 mph    
Max Gust Speed 31 mph    
Visibility 8 miles    
Events Rain    
Averages and records for this station are not official NWS values.
T = Trace of Precipitation, MM = Missing Value Source: NWS Daily Summary

Daily Weather History Graph

Daily Weather History Graph

Search for Another Location

Airport:

Trip Planner

Search our weather history database for the weather conditions in past years. The results will help you decide how hot, cold, wet, or windy it might be!

Date:

Astronomy

Dec. 03, 2012 Rise Set
Actual Time 7:44 AM CST 4:33 PM CST
Civil Twilight 7:10 AM CST 5:07 PM CST
Nautical Twilight 6:32 AM CST 5:45 PM CST
Astronomical Twilight 5:56 AM CST 6:21 PM CST
Moon 9:30 PM CST (12/3) 11:00 AM CST (12/3)
Length of Visible Light 9h 57m
Length of Day
8h 48m
Waning Gibbous, 78% of the Moon is Illuminated
Dec 3
Waning Gibbous
Dec 6
Last Quarter
Dec 13
New
Dec 19
First Quarter
Dec 28
Full

Hourly Weather History & Observations

Time (CST) Temp. Windchill Dew Point Humidity Pressure Visibility Wind Dir Wind Speed Gust Speed Precip Events Conditions
12:13 AM 41.0 °F 32.8 °F 35.6 °F 81% 29.60 in 10.0 mi SSE 16.1 mph 20.7 mph N/A   Clear
12:34 AM 41.0 °F 33.5 °F 35.6 °F 81% 29.59 in 10.0 mi SSE 13.8 mph 20.7 mph N/A   Clear
12:53 AM 41.0 °F 33.1 °F 35.6 °F 81% 29.59 in 10.0 mi SSE 15.0 mph 23.0 mph N/A   Clear
1:13 AM 39.2 °F 31.2 °F 35.6 °F 87% 29.59 in 7.0 mi SSE 13.8 mph 20.7 mph N/A   Clear
1:34 AM 39.2 °F 32.5 °F 35.6 °F 87% 29.58 in 7.0 mi SSE 10.4 mph - N/A   Clear
1:53 AM 39.2 °F 31.2 °F 35.6 °F 87% 29.57 in 7.0 mi SSE 13.8 mph 19.6 mph N/A   Clear
2:13 AM 39.2 °F 33.0 °F 35.6 °F 87% 29.57 in 7.0 mi SSE 9.2 mph 16.1 mph N/A   Clear
2:34 AM 39.2 °F 33.0 °F 35.6 °F 87% 29.57 in 7.0 mi SSE 9.2 mph - N/A   Clear
2:53 AM 39.2 °F 33.0 °F 37.4 °F 93% 29.56 in 7.0 mi SSE 9.2 mph - N/A   Clear
3:13 AM 39.2 °F 31.6 °F 37.4 °F 93% 29.55 in 7.0 mi SSE 12.7 mph - N/A   Clear
3:34 AM 42.8 °F 35.8 °F 37.4 °F 81% 29.53 in 10.0 mi SSE 13.8 mph 21.9 mph N/A   Clear
3:53 AM 42.8 °F 35.8 °F 37.4 °F 81% 29.53 in 10.0 mi SSE 13.8 mph 17.3 mph N/A   Clear
4:34 AM 42.8 °F 36.2 °F 37.4 °F 81% 29.51 in 10.0 mi SSE 12.7 mph 20.7 mph N/A   Clear
4:53 AM 42.8 °F 35.4 °F 37.4 °F 81% 29.50 in 10.0 mi SSE 15.0 mph 21.9 mph N/A   Clear
5:14 AM 42.8 °F 35.4 °F 39.2 °F 87% 29.49 in 7.0 mi SSE 15.0 mph 23.0 mph N/A   Scattered Clouds
5:34 AM 42.8 °F 34.3 °F 39.2 °F 87% 29.47 in 7.0 mi SSE 19.6 mph 28.8 mph N/A   Mostly Cloudy
5:53 AM 44.6 °F 36.6 °F 42.8 °F 93% 29.48 in 5.0 mi SSE 19.6 mph 24.2 mph N/A   Overcast
6:14 AM 44.6 °F 36.4 °F 42.8 °F 93% 29.48 in 5.0 mi South 20.7 mph 25.3 mph N/A   Overcast
6:34 AM 44.6 °F 37.8 °F 42.8 °F 93% 29.47 in 4.0 mi SSE 15.0 mph 26.5 mph N/A   Overcast
6:53 AM 44.6 °F 36.4 °F 42.8 °F 93% 29.47 in 4.0 mi South 20.7 mph 25.3 mph N/A   Overcast
7:14 AM 44.6 °F 37.2 °F 42.8 °F 93% 29.48 in 4.0 mi South 17.3 mph 25.3 mph N/A   Overcast
7:34 AM 44.6 °F 37.2 °F 42.8 °F 93% 29.49 in 3.0 mi South 17.3 mph 20.7 mph N/A   Overcast
7:53 AM 44.6 °F 37.2 °F 44.6 °F 100% 29.49 in 3.0 mi South 17.3 mph - N/A   Overcast
8:14 AM 44.6 °F 38.8 °F 44.6 °F 100% 29.49 in 2.5 mi South 11.5 mph - N/A   Overcast
8:34 AM 44.6 °F 37.8 °F 44.6 °F 100% 29.48 in 2.5 mi South 15.0 mph 21.9 mph N/A   Overcast
9:14 AM 46.4 °F 39.8 °F 44.6 °F 93% 29.47 in 4.0 mi SSW 16.1 mph 19.6 mph N/A   Overcast
9:33 AM 46.4 °F 41.1 °F 44.6 °F 93% 29.48 in 4.0 mi SSW 11.5 mph - N/A   Overcast
9:54 AM 46.4 °F 40.7 °F 44.6 °F 93% 29.48 in 5.0 mi SSW 12.7 mph 18.4 mph N/A   Overcast
10:14 AM 48.2 °F - 42.8 °F 82% 29.49 in 5.0 mi SW 10.4 mph 16.1 mph N/A   Haze
10:33 AM 48.2 °F - 42.8 °F 82% 29.50 in 7.0 mi SW 15.0 mph 20.7 mph N/A   Mostly Cloudy
10:54 AM 48.2 °F - 42.8 °F 82% 29.50 in 7.0 mi SW 15.0 mph 20.7 mph N/A   Mostly Cloudy
11:14 AM 46.4 °F 38.7 °F 39.2 °F 76% 29.51 in 10.0 mi West 20.7 mph 25.3 mph N/A   Mostly Cloudy
11:33 AM 46.4 °F 39.5 °F 39.2 °F 76% 29.52 in 10.0 mi West 17.3 mph 27.6 mph N/A   Mostly Cloudy
11:54 AM 46.4 °F 38.7 °F 37.4 °F 71% 29.53 in 10.0 mi West 20.7 mph 28.8 mph N/A   Overcast
12:14 PM 46.4 °F 39.2 °F 39.2 °F 76% 29.54 in 10.0 mi WNW 18.4 mph 26.5 mph N/A   Overcast
12:33 PM 44.6 °F 39.2 °F 39.2 °F 81% 29.54 in 10.0 mi WNW 10.4 mph 18.4 mph N/A Rain Light Rain
1:13 PM 42.8 °F 34.5 °F 39.2 °F 87% 29.56 in 10.0 mi West 18.4 mph 21.9 mph N/A   Mostly Cloudy
1:34 PM 42.8 °F 35.1 °F 39.2 °F 87% 29.58 in 10.0 mi West 16.1 mph 26.5 mph N/A   Overcast
1:54 PM 42.8 °F 34.5 °F 39.2 °F 87% 29.59 in 10.0 mi West 18.4 mph 24.2 mph N/A   Overcast
2:13 PM 44.6 °F 37.4 °F 39.2 °F 81% 29.59 in 10.0 mi West 16.1 mph 20.7 mph N/A   Overcast
2:34 PM 44.6 °F 36.9 °F 37.4 °F 76% 29.60 in 10.0 mi WNW 18.4 mph 24.2 mph N/A   Mostly Cloudy
2:54 PM 44.6 °F 36.4 °F 37.4 °F 76% 29.61 in 10.0 mi West 20.7 mph 25.3 mph N/A   Scattered Clouds
3:13 PM 44.6 °F 36.9 °F 35.6 °F 71% 29.63 in 10.0 mi West 18.4 mph 25.3 mph N/A   Clear
3:34 PM 44.6 °F 37.4 °F 35.6 °F 71% 29.66 in 10.0 mi West 16.1 mph - N/A   Clear
3:53 PM 44.6 °F 37.4 °F 35.6 °F 71% 29.67 in 10.0 mi West 16.1 mph - N/A   Clear
4:14 PM 42.8 °F 36.6 °F 33.8 °F 70% 29.68 in 10.0 mi West 11.5 mph - N/A   Clear
4:34 PM 41.0 °F 33.9 °F 33.8 °F 76% 29.68 in 10.0 mi West 12.7 mph - N/A   Clear
4:53 PM 39.2 °F 33.6 °F 33.8 °F 81% 29.69 in 10.0 mi WSW 8.1 mph - N/A   Clear
5:14 PM 39.2 °F 35.0 °F 33.8 °F 81% 29.70 in 10.0 mi SW 5.8 mph - N/A   Clear
5:33 PM 37.4 °F 32.1 °F 33.8 °F 87% 29.71 in 10.0 mi SW 6.9 mph - N/A   Clear
5:53 PM 39.2 °F 33.0 °F 33.8 °F 81% 29.71 in 10.0 mi WSW 9.2 mph - N/A   Clear
6:14 PM 39.2 °F 33.0 °F 33.8 °F 81% 29.73 in 10.0 mi SW 9.2 mph - N/A   Clear
6:33 PM 39.2 °F 30.8 °F 30.2 °F 70% 29.74 in 10.0 mi West 15.0 mph 19.6 mph N/A   Clear
6:53 PM 39.2 °F 32.0 °F 30.2 °F 70% 29.75 in 10.0 mi West 11.5 mph 19.6 mph N/A   Clear
7:13 PM 37.4 °F 30.8 °F 30.2 °F 75% 29.76 in 10.0 mi West 9.2 mph - N/A   Clear
7:33 PM 37.4 °F 30.8 °F 28.4 °F 70% 29.76 in 10.0 mi West 9.2 mph - N/A   Clear
7:54 PM 35.6 °F 28.6 °F 28.4 °F 75% 29.77 in 10.0 mi West 9.2 mph - N/A   Clear
8:13 PM 35.6 °F 28.6 °F 28.4 °F 75% 29.77 in 10.0 mi West 9.2 mph - N/A   Clear
8:34 PM 35.6 °F 27.1 °F 28.4 °F 75% 29.78 in 10.0 mi West 12.7 mph 17.3 mph N/A   Clear
8:53 PM 35.6 °F 25.9 °F 26.6 °F 70% 29.78 in 10.0 mi West 16.1 mph 31.1 mph N/A   Clear
9:14 PM 35.6 °F 26.2 °F 26.6 °F 70% 29.79 in 10.0 mi West 15.0 mph 25.3 mph N/A   Clear
9:34 PM 35.6 °F 25.2 °F 26.6 °F 70% 29.80 in 10.0 mi West 18.4 mph 25.3 mph N/A   Clear
9:53 PM 35.6 °F 24.2 °F 24.8 °F 65% 29.81 in 10.0 mi West 21.9 mph 28.8 mph N/A   Clear
10:14 PM 33.8 °F 22.2 °F 24.8 °F 70% 29.83 in 10.0 mi WNW 20.7 mph 26.5 mph N/A   Clear
10:34 PM 33.8 °F 23.2 °F 24.8 °F 70% 29.83 in 10.0 mi West 17.3 mph 26.5 mph N/A   Clear
10:53 PM 30.2 °F 17.8 °F 24.8 °F 80% 29.84 in 10.0 mi West 19.6 mph 27.6 mph N/A   Clear
11:14 PM 30.2 °F 19.3 °F 23.0 °F 75% 29.86 in 10.0 mi West 15.0 mph 24.2 mph N/A   Clear
11:34 PM 28.4 °F 15.4 °F 23.0 °F 80% 29.87 in 10.0 mi West 19.6 mph 25.3 mph N/A   Clear
11:53 PM 28.4 °F 16.2 °F 21.2 °F 74% 29.87 in 10.0 mi West 17.3 mph 26.5 mph N/A   Clear